Location: Bald Rock
(37.3738°N, 119.9354°W)
Time: 13:01:39
(UTC+00:00)

IRS-1D - Pass Details

Date: 08 September 2024
Orbit: 738 x 812 km, 98.8° (Epoch: 12 October)

Event Time Altitude Azimuth Distance (km) Brightness Sun altitude
Rises 12:02:58 0° 11° (N) 3,326 7.3 -18.7°
Reaches altitude 10° 12:05:19 10° 10° (N) 2,397 6.5 -18.3°
Maximum altitude 12:10:37 78° 286° (WNW) 834 3.5 -17.3°
Enters shadow 12:15:35 12° 200° (SSW) 2,258 5.6 -16.4°
